Location: Dos Palmas
(32.4468°N, 116.8732°W)
Time: 12:17:39
(UTC+00:00)

Envisat - Visible Passes

Search period start: 20 July 2024 00:00
Search period end: 30 July 2024 00:00
Orbit: 762 x 764 km, 98.3° (Epoch: 20 July)

Date Brightness Start Highest point End Pass type
(mag) Time Alt. Az. Time Alt. Az. Time Alt. Az.
20 Jul 4.6 10:09:37 10° NE 10:13:53 27° E 10:15:38 22° SE visible
20 Jul 4.1 11:48:29 10° NNW 11:52:43 27° WNW 11:55:46 16° WSW visible
21 Jul 5.6 09:35:35 10° E 09:36:13 10° E 09:36:50 10° E visible
21 Jul 3.0 11:10:30 10° N 11:15:32 67° WNW 11:17:53 31° SSW visible
22 Jul 3.7 10:33:15 10° NNE 10:38:10 49° E 10:39:59 33° SSE visible
22 Jul 4.7 12:13:42 10° NNW 12:16:40 16° WNW 12:19:38 10° WSW visible
23 Jul 5.0 09:56:58 10° NE 10:00:37 20° E 10:02:06 17° ESE visible
23 Jul 3.7 11:34:58 10° N 11:39:37 37° WNW 11:42:15 22° SW visible
24 Jul 2.9 10:57:16 10° NNE 11:02:21 89° E 11:04:21 38° SSW visible
25 Jul 4.2 10:20:18 10° NNE 10:24:56 35° E 10:26:28 29° SE visible
25 Jul 4.4 11:59:51 10° NNW 12:03:36 21° WNW 12:06:37 13° WSW visible
26 Jul 5.3 09:44:40 10° ENE 09:47:19 14° E 09:48:33 13° ESE visible
26 Jul 3.2 11:21:35 10° N 11:26:29 51° WNW 11:28:43 30° SW visible
27 Jul 3.2 10:44:07 10° NNE 10:49:10 65° ESE 10:50:49 41° SSE visible
27 Jul 5.0 12:25:39 10° NW 12:27:30 12° WNW 12:29:21 10° W visible
28 Jul 4.6 10:07:28 10° NE 10:11:40 26° E 10:12:56 23° ESE visible
28 Jul 4.0 11:46:13 10° NNW 11:50:31 28° WNW 11:53:04 19° WSW visible
29 Jul 2.9 11:08:16 10° N 11:13:19 70° WNW 11:15:10 39° SSW visible
